World > North America > United States > Texas > Goober Hill

Hourly Goober Hill, TX Regional Weather

Feedback E-mail the Weather

Quick WX

Goober Hill, TX Weather Maps

°F °C°F °C
Goober Hill Weather Map
UTC Time: 8/15/2022, 15:08
Your Time:

Goober Hill, TX Regional Weather

Expires:202208151600;;083847
ASUS44 KFWD 151503
RWRTX 
NORTH TEXAS HOURLY WEATHER ROUNDUP
NATIONAL WEATHER SERVICE FORT WORTH TX
1000 AM CDT MON AUG 15 2022

NOTE: "FAIR" INDICATES FEW OR NO CLOUDS BELOW 12,000 FEET WITH NO
SIGNIFICANT WEATHER AND/OR OBSTRUCTIONS TO VISIBILITY.


TXZ095>097-106>112-122>126-135>138-148>153-164>167-151600-
EAST TEXAS
  
CITY           SKY/WX    TMP DP  RH WIND       PRES   REMARKS
PARIS          FAIR      89  69  51 W9        29.99S HX  93           
SULPHUR SPRNGS FAIR      88  67  48 SW12      30.01S HX  91           
MOUNT PLEASANT FAIR      87  70  56 SW7       29.99F HX  92           
GILMER         FAIR      86  68  55 SW7       30.00S                  
MINEOLA        FAIR      86  70  58 SW6       30.00F HX  90           
TYLER          FAIR      87  71  58 W9        30.01R HX  93           
LONGVIEW       FAIR      87  71  58 W9        29.99S HX  93           
MARSHALL       FAIR      85  72  63 W3        30.01F HX  91           
ATHENS         FAIR      86  70  58 SW6       30.00R HX  90           
PALESTINE      FAIR      84  73  70 S7        30.00S HX  91           
HENDERSON      FAIR      88  66  47 SW3       30.02F HX  90           
NACOGDOCHES    FAIR      84  75  74 W6        30.02S HX  92           
LUFKIN         FAIR      86  75  69 CALM      30.01R HX  95           
$$

SUPPLEMENTAL OBSERVATIONS (NWS FORT WORTH AREA)
  
CITY           SKY/WX    TMP DP  RH WIND       PRES   REMARKS
$$

SUPPLEMENTAL OBSERVATIONS (NWS NORMAN AREA)
  
CITY           SKY/WX    TMP DP  RH WIND       PRES   REMARKS
GOODLETT         N/A     87  66  50 S13       29.99                   
ODELL            N/A     87  68  54 S12       29.99F HX  90           
CROWELL          N/A     87  67  52 SW14      30.00S                  
KNOX CITY        N/A     85  64  49 SW14      30.00                   
SEYMOUR          N/A     84  66  54 SW13      30.00R                  
$$

SUPPLEMENTAL OBSERVATIONS (NWS SAN ANGELO AREA)
  
CITY           SKY/WX    TMP DP  RH WIND       PRES   REMARKS
WEINERT          N/A     83  66  56 S8        30.01S                  
HASKELL          N/A     82  67  61 SW10      30.01                   
THROCKMORTON     N/A     84  67  55 SW7       30.00                   
STAMFORD         N/A     83  67  57 SW15      30.02                   
CLYDE            N/A     81  66  60 S15       30.05S                  
$$

SUPPLEMENTAL OBSERVATIONS (NWS SHREVEPORT AREA)
  
CITY           SKY/WX    TMP DP  RH WIND       PRES   REMARKS
$$

SUPPLEMENTAL OBSERVATIONS ARE A COLLECTION OF AUTOMATED INSTRUMENTS
THAT ARE MAINTAINED BY A VARIETY OF FEDERAL AND STATE AGENCIES. 
CERTAIN ELEMENTS...SUCH AS HUMIDITY VALUES AND SUSTAINED WIND 
SPEEDS...MAY BE APPROXIMATED.

  

SKY/WX - Weather  TMP - Temperature  DP - Dew Point  RH - Humidity
WIND - Wind Direction/Speed PRES - Barometric Pressure VSB - Visibility
WCI - Wind Chill Index E13G22 Wind - East Wind 13 mph/Gusts of 22 mph

Trending Headlines

Goober Hill Radar Loop



Goober Hill Quick Facts


National Two Day Weather Forecast


E-mail the Goober Hill Weather Forecast

Voice your opinion or tell us about page issues...